SR5NLK-1 Weather Reports


time (UTC)temp
C
wind
direction
speed
KPH
gust
KPH
rain 1hr
cm
rain 24hr
cm
rain mn
cm
humidity
%
barometer
mb
20260503215010 17 202 6.4 8.0 0.00 0.00 0.00 1010.4
20260503215003 17 202 6.4 8.0 0.00 0.00 0.00 38 1010.4
20260503214502 17 180 8.0 9.7 0.00 0.00 0.00 38 1075.2
20260503214003 17 157 4.8 9.7 0.00 0.00 0.00 38 1045.9
20260503213503 17 202 9.7 9.7 0.00 0.00 0.00 38 1004.1
20260503213009 17 180 3.2 9.7 0.00 0.00 0.00 37 1308.4
20260503213003 17 180 3.2 9.7 0.00 0.00 0.00 37 1084.7
20260503212503 17 180 3.2 9.7 0.00 0.00 0.00 37 1084.6
20260503212003 17 180 4.8 6.4 0.00 0.00 0.00 37 1058.5
20260503211503 17 157 1.6 9.7 0.00 0.00 0.00 36 1039.7
20260503211202 17 180 3.2 9.7 0.00 0.00 0.00 36 1045.9
20260503211003 17 180 4.8 9.7 0.00 0.00 0.00 36 1108.3
20260503210503 18 157 3.2 4.8 0.00 0.00 0.00 36 1046.0
20260503210003 18 180 6.4 9.7 0.00 0.00 0.00 35 1010.4
20260503205503 18 157 4.8 6.4 0.00 0.00 0.00 35 1058.5
20260503205003 18 157 3.2 9.7 0.00 0.00 0.00 35 1042.8
20260503204503 18 180 4.8 8.0 0.00 0.00 0.00 35 1081.5
20260503204003 18 180 6.4 12.9 0.00 0.00 0.00 35 952.9
20260503203902 18 157 3.2 12.9 0.00 0.00 0.00 35 997.9
20260503203503 18 180 12.9 12.9 0.00 0.00 0.00 34 1078.4
20260503203003 18 112 4.8 9.7 0.00 0.00 0.00 34 1094.0
20260503202503 18 180 4.8 9.7 0.00 0.00 0.00 34 982.1
20260503202003 18 157 4.8 8.0 0.00 0.00 0.00 33 959.0
20260503201503 18 180 6.4 8.0 0.00 0.00 0.00 33 988.4
20260503201003 19 180 4.8 9.7 0.00 0.00 0.00 33 1039.7
20260503200602 19 157 6.4 9.7 0.00 0.00 0.00 33 1081.5
20260503200503 19 157 6.4 9.7 0.00 0.00 0.00 33 1049.1
20260503200003 19 157 4.8 9.7 0.00 0.00 0.00 33 1007.3
20260503195511 19 180 8.0 9.7 0.00 0.00 0.00 33 1042.8
20260503195503 19 180 8.0 9.7 0.00 0.00 0.00 33 1042.8
20260503195003 19 180 4.8 9.7 0.00 0.00 0.00 32 1087.8
20260503194503 19 157 3.2 9.7 0.00 0.00 0.00 32 1075.2
20260503194003 20 180 6.4 9.7 0.00 0.00 0.00 32 1001.0
20260503193503 20 157 9.7 9.7 0.00 0.00 0.00 32 971.7
20260503193302 20 157 4.8 6.4 0.00 0.00 0.00 32 1078.4
20260503193003 20 157 6.4 9.7 0.00 0.00 0.00 31 1078.4
20260503192503 20 157 6.4 9.7 0.00 0.00 0.00 31 1027.1
20260503192003 20 157 6.4 9.7 0.00 0.00 0.00 31 914.6
20260503191503 20 180 6.4 8.0 0.00 0.00 0.00 31 1033.4
20260503191003 20 135 8.0 9.7 0.00 0.00 0.00 31 1090.9
20260503190503 20 157 6.4 9.7 0.00 0.00 0.00 30 1075.2
20260503190002 20 157 3.2 8.0 0.00 0.00 0.00 30 1039.7
20260503185503 20 180 3.2 11.3 0.00 0.00 0.00 30 1064.7
20260503185003 20 157 6.4 8.0 0.00 0.00 0.00 30 1001.0
20260503184503 21 135 4.8 8.0 0.00 0.00 0.00 29 1052.2
20260503184003 21 157 6.4 8.0 0.00 0.00 0.00 29 1049.1
20260503183503 21 157 4.8 8.0 0.00 0.00 0.00 27 1036.5
20260503183003 21 157 3.2 4.8 0.00 0.00 0.00 27 1036.6
20260503182702 21 202 4.8 6.4 0.00 0.00 0.00 28 1042.8
20260503182510 21 180 128.7 6.4 0.00 0.00 0.00 27 1075.2
20260503182503 21 180 1.6 6.4 0.00 0.00 0.00 27 1075.2
20260503182004 21 157 3.2 6.4 0.00 0.00 0.00 26 1075.3
20260503181504 22 202 3.2 8.0 0.00 0.00 0.00 26 1052.2
20260503181004 22 202 6.4 6.4 0.00 0.00 0.00 25 1039.7
20260503180503 22 180 4.8 8.0 0.00 0.00 0.00 25 1084.7
20260503180003 23 157 4.8 8.0 0.00 0.00 0.00 25 1052.2
20260503175503 23 202 8.0 8.0 0.00 0.00 0.00 24 1072.1
20260503175402 23 157 3.2 6.4 0.00 0.00 0.00 24 1036.5
20260503175003 24 202 4.8 6.4 0.00 0.00 0.00 24 1049.1
20260503174503 24 202 3.2 8.0 0.00 0.00 0.00 24 962.3
20260503174003 25 202 4.8 11.3 0.00 0.00 0.00 23 997.8
20260503173503 25 202 4.8 16.1 0.00 0.00 0.00 23 1072.1
20260503173003 25 225 6.4 9.7 0.00 0.00 0.00 23 1094.1
20260503172504 25 202 9.7 14.5 0.00 0.00 0.00 22 1090.9
20260503172102 26 202 4.8 14.5 0.00 0.00 0.00 22 1089.5
20260503172003 26 202 9.7 16.1 0.00 0.00 0.00 22 1049.1
20260503171503 26 225 14.5 19.3 0.00 0.00 0.00 22 985.3
20260503171011 26 180 4.8 12.9 0.00 0.00 0.00 22 956.0
20260503171003 26 180 4.8 12.9 0.00 0.00 0.00 22 956.0
20260503170503 26 225 8.0 14.5 0.00 0.00 0.00 21 1084.7
20260503151003 28 202 19.3 33.8 0.00 0.00 0.00 20 997.9
20260503150902 28 202 17.7 22.5 0.00 0.00 0.00 20 1049.1
20260503150503 28 270 11.3 24.1 0.00 0.00 0.00 20 1033.4
20260503140303 29 202 12.9 25.7 0.00 0.00 0.00 19 1109.7
20260503131004 29 157 9.7 29.0 0.00 0.00 0.00 19 1097.2
20260503130504 29 135 6.4 29.0 0.00 0.00 0.00 19 1036.6
20260503110504 28 157 24.1 24.1 0.00 0.00 0.00 21 1081.5
20260503090504 27 157 4.8 19.3 0.00 0.00 0.00 25 1055.4
20260503081511 30 157 19.3 25.7 0.00 0.00 0.00 22 1023.0
20260503081504 30 157 19.3 25.7 0.00 0.00 0.00 22 1023.0
20260503081004 31 157 8.0 33.8 0.00 0.00 0.00 22 1084.7
20260503080504 31 202 12.9 25.7 0.00 0.00 0.00 22 1081.5
20260503072703 34 202 17.7 30.6 0.00 0.00 0.00 21 1090.9
20260503072504 34 225 20.9 30.6 0.00 0.00 0.00 21 1047.8
20260503072004 33 180 6.4 14.5 0.00 0.00 0.00 23 1018.7
20260503071504 33 180 14.5 17.7 0.00 0.00 0.00 23 1052.5
20260503071004 33 157 14.5 16.1 0.00 0.00 0.00 23 1042.1
20260503070504 33 202 12.9 16.1 0.00 0.00 0.00 23 1036.4
20260503055004 30 202 14.5 16.1 0.00 0.00 0.00 27 1005.4
20260503054803 30 180 8.0 16.1 0.00 0.00 0.00 27 1083.8
20260503054504 30 225 11.3 12.9 0.00 0.00 0.00 27 1049.1
20260503054004 30 225 9.7 14.5 0.00 0.00 0.00 27 1084.7
20260503053504 30 180 6.4 12.9 0.00 0.00 0.00 28 1080.7
20260503053004 30 180 8.0 12.9 0.00 0.00 0.00 28 1076.2
20260503052504 30 225 8.0 11.3 0.00 0.00 0.00 28 1089.9
20260503052252 30 202 8.0 8.0 0.00 0.00 0.00 28 1033.4
20260503052004 30 202 8.0 8.0 0.00 0.00 0.00 28 1033.4
20260503051504 29 180 4.8 8.0 0.00 0.00 0.00 29 1075.2
20260503051005 29 202 4.8 8.0 0.00 0.00 0.00 29 1086.5
20260503050504 28 180 4.8 4.8 0.00 0.00 0.00 30 1062.7
20260503050005 28 202 4.8 9.7 0.00 0.00 0.00 31 1087.7
20260503045504 27 180 1.6 6.4 0.00 0.00 0.00 33 999.0
20260503045004 26 157 1.6 6.4 0.00 0.00 0.00 34 1027.1
20260503044504 26 202 3.2 8.0 0.00 0.00 0.00 35 1084.7
20260503044204 25 202 6.4 8.0 0.00 0.00 0.00 36 1090.9
20260503044004 25 180 3.2 6.4 0.00 0.00 0.00 37 1033.4
20260503043505 25 247 3.2 6.4 0.00 0.00 0.00 38 1041.6
20260503043004 23 180 3.2 6.4 0.00 0.00 0.00 40 1084.8
20260503042504 22 202 3.2 4.8 0.00 0.00 0.00 42 1051.9
20260503042005 21 225 4.8 8.0 0.00 0.00 0.00 45 1087.8
20260503041505 20 202 6.4 8.0 0.00 0.00 0.00 48 1081.5
20260503041005 18 247 4.8 8.0 0.00 0.00 0.00 52 1075.2
20260503040904 18 202 4.8 8.0 0.00 0.00 0.00 53 1033.4
20260503040505 17 247 3.2 9.7 0.00 0.00 0.00 56 1086.8
20260503040005 15 202 9.7 9.7 0.00 0.00 0.00 62 1049.1
20260503035505 13 202 6.4 9.7 0.00 0.00 0.00 68 1039.7
20260503035005 12 247 4.8 4.8 0.00 0.00 0.00 70 1030.3
20260503034505 10 270 0.0 3.2 0.00 0.00 0.00 69 1043.1
20260503034005 9 270 0.0 1.6 0.00 0.00 0.00 67 1072.3
20260503033604 9 270 0.0 1.6 0.00 0.00 0.00 67 1043.4
20260503033505 9 292 0.0 1.6 0.00 0.00 0.00 67 1058.9
20260503033005 8 270 1.6 3.2 0.00 0.00 0.00 66 1001.9
20260503032505 8 292 3.2 3.2 0.00 0.00 0.00 65 1006.0
20260503032005 8 292 0.0 0.0 0.00 0.00 0.00 64 1081.5
20260503031505 8 337 0.0 0.0 0.00 0.00 0.00 64 1044.4
20260503031005 9 337 0.0 0.0 0.00 0.00 0.00 63 1029.0
20260503030505 9 202 0.0 1.6 0.00 0.00 0.00 63 1100.3
20260503030304 9 180 0.0 1.6 0.00 0.00 0.00 62 1068.9
20260503030005 10 180 0.0 1.6 0.00 0.00 0.00 62 1081.5
20260503025505 10 180 0.0 3.2 0.00 0.00 0.00 62 1027.1
20260503025005 10 202 1.6 4.8 0.00 0.00 0.00 62 1036.7
20260503024505 10 225 3.2 6.4 0.00 0.00 0.00 62 1065.8
20260503024005 10 202 3.2 6.4 0.00 0.00 0.00 62 1034.9
20260503023505 10 157 3.2 3.2 0.00 0.00 0.00 61 1094.1
20260503023004 10 202 3.2 3.2 0.00 0.00 0.00 61 1045.5
20260503022505 10 180 3.2 4.8 0.00 0.00 0.00 61 1048.1
20260503022005 10 202 3.2 4.8 0.00 0.00 0.00 61 1081.5
20260503021514 10 202 3.2 6.4 0.00 0.00 0.00 61 1605.0
20260503021505 10 202 3.2 6.4 0.00 0.00 0.00 61 1050.2
20260503021005 10 202 6.4 6.4 0.00 0.00 0.00 61 1039.3
20260503020954 10 225 3.2 3.2 0.00 0.00 0.00 60 1039.3
20260503020005 10 225 3.2 3.2 0.00 0.00 0.00 60 1044.7
20260503015704 10 180 0.0 3.2 0.00 0.00 0.00 60 1089.0
20260503015505 10 202 1.6 6.4 0.00 0.00 0.00 60 1087.8
20260503015005 10 202 6.4 6.4 0.00 0.00 0.00 60 956.4
20260503014505 10 180 1.6 6.4 0.00 0.00 0.00 61 1085.5
20260503014011 -15 225 3.2 8.0 0.00 0.00 0.00 61
20260503014005 10 225 3.2 8.0 0.00 0.00 0.00 61 1007.7
20260503013505 10 202 4.8 8.0 0.00 0.00 0.00 61 1062.6
20260503013005 10 202 4.8 6.4 0.00 0.00 0.00 61 1043.9
20260503012505 10 225 6.4 8.0 0.00 0.00 0.00 61 1053.0
20260503012404 10 202 4.8 8.0 0.00 0.00 0.00 61 1078.9
20260503012005 10 202 4.8 9.7 0.00 0.00 0.00 61 1030.9
20260503011511 10 202 3.2 3.2 0.00 0.00 0.00 1042.4
20260503011505 10 202 3.2 3.2 0.00 0.00 0.00 61 1042.4
20260503011005 10 202 1.6 3.2 0.00 0.00 0.00 61 997.7
20260503010505 10 225 1.6 3.2 0.00 0.00 0.00 61 1045.4
20260503010005 10 225 3.2 4.8 0.00 0.00 0.00 61 1055.9
20260503005505 10 225 4.8 4.8 0.00 0.00 0.00 62 1078.6
20260503005104 10 247 1.6 3.2 0.00 0.00 0.00 62 995.1
20260503005005 10 225 3.2 3.2 0.00 0.00 0.00 62 1040.6
20260503004505 10 247 0.0 3.2 0.00 0.00 0.00 61 1066.6
20260503004005 10 247 3.2 3.2 0.00 0.00 0.00 61 1049.1
20260503003505 10 270 0.0 1.6 0.00 0.00 0.00 60 996.3
20260503003005 10 270 0.0 1.6 0.00 0.00 0.00 60 1006.1
20260503002505 10 270 0.0 1.6 0.00 0.00 0.00 59 1084.7
20260503002005 11 225 0.0 1.6 0.00 0.00 0.00 58 1036.6
20260503001804 11 247 0.0 1.6 0.00 0.00 0.00 57 1048.4
20260503001505 11 270 0.0 1.6 0.00 0.00 0.00 57 1044.0
20260503001005 11 247 0.0 0.0 0.00 0.00 0.00 56 1001.1
20260503000505 11 225 0.0 0.0 0.00 0.00 0.00 55 1081.5
20260503000005 11 225 0.0 1.6 0.00 0.00 0.00 55 1035.9
20260502235505 12 225 0.0 1.6 0.00 0.00 0.00 55 1005.5
20260502235005 12 202 0.0 4.8 0.00 0.00 0.00 55 997.9
20260502234504 12 202 4.8 4.8 0.00 0.00 0.00 55 1044.4
20260502234005 12 180 4.8 6.4 0.00 0.00 0.00 55 1049.1
20260502233505 11 180 4.8 8.0 0.00 0.00 0.00 56 1010.3
20260502233005 11 225 8.0 9.7 0.00 0.00 0.00 56 1072.1
20260502232505 11 202 6.4 8.0 0.00 0.00 0.00 55 1042.8
20260502232005 11 157 0.0 1.6 0.00 0.00 0.00 55 1082.0
20260502231505 11 225 1.6 1.6 0.00 0.00 0.00 54 961.3
20260502231204 11 180 0.0 1.6 0.00 0.00 0.00 54 963.9
20260502231005 11 180 0.0 1.6 0.00 0.00 0.00 54 1054.2
20260502230505 11 157 0.0 1.6 0.00 0.00 0.00 54 962.1
20260502230005 12 157 0.0 0.0 0.00 0.00 0.00 53 1063.5
20260502225505 12 157 0.0 0.0 0.00 0.00 0.00 53 1042.8
20260502225005 12 180 0.0 0.0 0.00 0.00 0.00 52 1019.5
20260502224505 12 157 0.0 1.6 0.00 0.00 0.00 52 1056.4
20260502224005 12 247 0.0 3.2 0.00 0.00 0.00 51 1076.5
20260502223904 12 202 0.0 3.2 0.00 0.00 0.00 51 1082.8
20260502223505 12 157 0.0 1.6 0.00 0.00 0.00 51 1089.5
20260502223005 12 180 0.0 1.6 0.00 0.00 0.00 51 1072.1
20260502222505 12 270 0.0 0.0 0.00 0.00 0.00 50 998.5
20260502222005 13 180 0.0 1.6 0.00 0.00 0.00 50 1018.5
20260502221505 13 202 1.6 1.6 0.00 0.00 0.00 49 1013.3
20260502221005 13 225 0.0 3.2 0.00 0.00 0.00 48 1003.3
20260502220604 13 202 3.2 3.2 0.00 0.00 0.00 48 958.2
20260502220505 13 202 3.2 3.2 0.00 0.00 0.00 47 1039.7
20260502220005 13 225 3.2 3.2 0.00 0.00 0.00 47 1045.7
20260502215505 13 202 0.0 3.2 0.00 0.00 0.00 46 1053.3